Weather History for Shannon, Ireland

Change the Weather History Date:

Thursday, March 28, 2013

  Actual Average Record
Temperature  
Mean Temperature 34 °F -  
Max Temperature 43 °F 55 °F 66 °F (2012)
Min Temperature 26 °F 41 °F 26 °F (2013)
Degree Days  
Heating Degree Days 30    
Moisture  
Dew Point 25 °F    
Average Humidity 67    
Maximum Humidity 93    
Minimum Humidity 33    
Precipitation  
Precipitation 0.00 in 0.07 in - ()
Sea Level Pressure  
Sea Level Pressure 29.91 in    
Wind  
Wind Speed 10 mph ()    
Max Wind Speed 22 mph    
Max Gust Speed -    
Visibility 6.8 miles    
Events      
Averages and records for this station are not official NWS values.
T = Trace of Precipitation, MM = Missing Value Source: Averaged Metar Reports

Daily Weather History Graph

Daily Weather History Graph

Search for Another Location

Airport:

Trip Planner

Search our weather history database for the weather conditions in past years. The results will help you decide how hot, cold, wet, or windy it might be!

Date:

Astronomy

Mar. 28, 2013 Rise Set
Actual Time 6:19 AM GMT 7:03 PM GMT
Civil Twilight 5:44 AM GMT 7:38 PM GMT
Nautical Twilight 5:03 AM GMT 8:19 PM GMT
Astronomical Twilight 4:18 AM GMT 9:04 PM GMT
Moon 8:58 PM GMT (3/28) 6:25 AM GMT (3/28)
Length of Visible Light 13h 53m
Length of Day
12h 44m
Full, 98% of the Moon is Illuminated
Mar 28
Full
Apr 3
Last Quarter
Apr 10
New
Apr 18
First Quarter
Apr 25
Full

Hourly Weather History & Observations

Time (GMT) Temp. Windchill Dew Point Humidity Pressure Visibility Wind Dir Wind Speed Gust Speed Precip Events Conditions
12:00 AM 29 °F - 25 °F 79% 30.00 in 16 mi NE 6.7 mph - -  
12:00 AM 28.4 °F 22.2 °F 24.8 °F 86% 29.98 in - NE 5.8 mph - N/A   Clear
12:30 AM 30.2 °F 25.4 °F 24.8 °F 80% 29.98 in - ENE 4.6 mph - N/A   Clear
1:00 AM 26.6 °F 22.6 °F 24.8 °F 93% 29.98 in - North 3.5 mph - N/A   Clear
1:30 AM 26.6 °F - 24.8 °F 93% 29.98 in 6.2 mi North 1.2 mph - N/A   Partly Cloudy
2:00 AM 26.6 °F - 24.8 °F 93% 29.98 in 6.2 mi North 1.2 mph - N/A   Scattered Clouds
2:30 AM 26.6 °F 17.5 °F 24.8 °F 93% 29.98 in 6.2 mi NE 9.2 mph - N/A   Scattered Clouds
3:00 AM 28.4 °F 19.1 °F 26.6 °F 93% 29.95 in 6.2 mi NE 10.4 mph - N/A   Mostly Cloudy
3:30 AM 28.4 °F 19.1 °F 26.6 °F 93% 29.95 in 6.2 mi NE 10.4 mph - N/A   Partly Cloudy
4:00 AM 28.4 °F 19.7 °F 26.6 °F 93% 29.95 in - NE 9.2 mph - N/A   Clear
4:30 AM 26.6 °F 19.1 °F 24.8 °F 93% 29.95 in - NE 6.9 mph - N/A   Clear
5:00 AM 28.4 °F 22.2 °F 24.8 °F 86% 29.95 in 6.2 mi ENE 5.8 mph - N/A   Partly Cloudy
5:30 AM 30.2 °F 26.7 °F 26.6 °F 86% 29.95 in 6.2 mi NE 3.5 mph - N/A   Partly Cloudy
6:00 AM 30 °F - 27 °F 83% 29.97 in 16 mi East 4.5 mph - -   Scattered Clouds
6:00 AM 30.2 °F 25.4 °F 26.6 °F 86% 29.95 in 6.2 mi East 4.6 mph - N/A   Partly Cloudy
6:30 AM 28.4 °F 20.4 °F 26.6 °F 93% 29.95 in 6.2 mi ENE 8.1 mph - N/A   Partly Cloudy
7:00 AM 30.2 °F 22.6 °F 26.6 °F 86% 29.95 in 6.2 mi ENE 8.1 mph - N/A   Partly Cloudy
7:30 AM 32.0 °F 25.6 °F 26.6 °F 80% 29.95 in 6.2 mi ENE 6.9 mph - N/A   Partly Cloudy
8:00 AM 33.8 °F 25.3 °F 24.8 °F 70% 29.95 in 6.2 mi East 11.5 mph - N/A   Partly Cloudy
8:30 AM 33.8 °F 25.8 °F 24.8 °F 70% 29.95 in 6.2 mi East 10.4 mph - N/A   Partly Cloudy
9:00 AM 33.8 °F 25.8 °F 24.8 °F 70% 29.95 in 6.2 mi East 10.4 mph - N/A   Partly Cloudy
9:30 AM 35.6 °F 26.6 °F 24.8 °F 65% 29.95 in 6.2 mi East 13.8 mph - N/A   Partly Cloudy
10:00 AM 37.4 °F 28.2 °F 23.0 °F 56% 29.95 in 6.2 mi East 16.1 mph - N/A   Partly Cloudy
10:30 AM 37.4 °F 27.5 °F 21.2 °F 52% 29.92 in 6.2 mi East 18.4 mph - N/A   Partly Cloudy
11:00 AM 39.2 °F 29.3 °F 21.2 °F 49% 29.92 in 6.2 mi ESE 20.7 mph - N/A   Partly Cloudy
11:30 AM 39.2 °F 29.8 °F 21.2 °F 49% 29.92 in 6.2 mi East 18.4 mph - N/A   Partly Cloudy
12:00 PM 40 °F - 21 °F 33% 29.91 in 22 mi East 20.1 mph - -   Scattered Clouds
12:00 PM 41.0 °F 31.9 °F 21.2 °F 45% 29.89 in 6.2 mi East 19.6 mph - N/A   Partly Cloudy
12:30 PM 41.0 °F 31.6 °F 21.2 °F 45% 29.89 in 6.2 mi ESE 20.7 mph - N/A   Scattered Clouds
1:00 PM 41.0 °F 31.9 °F 21.2 °F 45% 29.89 in 6.2 mi ESE 19.6 mph - N/A   Scattered Clouds
1:30 PM 41.0 °F 31.4 °F 21.2 °F 45% 29.89 in 6.2 mi SE 21.9 mph - N/A   Scattered Clouds
2:00 PM 42.8 °F 33.8 °F 23.0 °F 46% 29.89 in 6.2 mi SE 21.9 mph - N/A   Scattered Clouds
2:30 PM 42.8 °F 34.0 °F 23.0 °F 46% 29.89 in 6.2 mi SE 20.7 mph - N/A   Mostly Cloudy
3:00 PM 42.8 °F 34.5 °F 24.8 °F 49% 29.89 in 6.2 mi ESE 18.4 mph - N/A   Mostly Cloudy
3:30 PM 42.8 °F 34.8 °F 21.2 °F 42% 29.89 in 6.2 mi ESE 17.3 mph - N/A   Mostly Cloudy
4:00 PM 41.0 °F 32.5 °F 23.0 °F 49% 29.86 in 6.2 mi ESE 17.3 mph - N/A   Scattered Clouds
4:30 PM 41.0 °F 32.5 °F 23.0 °F 49% 29.86 in 6.2 mi ESE 17.3 mph - N/A   Scattered Clouds
5:00 PM 41.0 °F 32.5 °F 24.8 °F 53% 29.86 in 6.2 mi East 17.3 mph - N/A   Scattered Clouds
5:30 PM 39.2 °F 29.6 °F 23.0 °F 52% 29.86 in 6.2 mi ESE 19.6 mph - N/A   Scattered Clouds
6:00 PM 39 °F - 24 °F 41% 29.87 in 16 mi ESE 20.1 mph - -   Scattered Clouds
6:00 PM 39.2 °F 29.6 °F 23.0 °F 52% 29.86 in 6.2 mi ESE 19.6 mph - N/A   Partly Cloudy
6:30 PM 39.2 °F 29.8 °F 23.0 °F 52% 29.86 in 6.2 mi ESE 18.4 mph - N/A   Partly Cloudy
7:00 PM 37.4 °F 27.5 °F 24.8 °F 60% 29.86 in 6.2 mi ESE 18.4 mph - N/A   Scattered Clouds
7:30 PM 37.4 °F 28.2 °F 24.8 °F 60% 29.86 in 6.2 mi ESE 16.1 mph - N/A   Partly Cloudy
8:00 PM 37.4 °F 28.5 °F 24.8 °F 60% 29.86 in 6.2 mi East 15.0 mph - N/A   Scattered Clouds
8:30 PM 37.4 °F 27.8 °F 26.6 °F 65% 29.83 in 6.2 mi East 17.3 mph - N/A   Mostly Cloudy
9:00 PM 37.4 °F 29.3 °F 26.6 °F 65% 29.83 in 6.2 mi East 12.7 mph - N/A   Mostly Cloudy
9:30 PM 37.4 °F 28.9 °F 26.6 °F 65% 29.83 in 6.2 mi East 13.8 mph - N/A   Mostly Cloudy
10:00 PM 37.4 °F 28.9 °F 26.6 °F 65% 29.83 in 6.2 mi East 13.8 mph - N/A   Scattered Clouds
10:30 PM 35.6 °F 26.6 °F 28.4 °F 75% 29.80 in 6.2 mi East 13.8 mph - N/A   Scattered Clouds
11:00 PM 35.6 °F 26.2 °F 26.6 °F 70% 29.80 in 6.2 mi East 15.0 mph - N/A   Scattered Clouds
11:30 PM 35.6 °F 25.9 °F 28.4 °F 75% 29.80 in 6.2 mi East 16.1 mph - N/A   Scattered Clouds